Theta_e
358 358 356 355 354 353 354 354 354 353 351 351 350 350 351 352 360 373 377 369 360 356 355 353 353 355 354 353 355 355 355 354 353 350 348 348 346 344 345 346 345 345 342 343 345 347 349 351 350 349 349 349 348 348 348 346 347 347 348 348 349 351 349 348 349 346 345 346 347 349 346 337 334 337
359 358 356 356 354 353 353 354 354 353 353 353 350 350 351 352 357 364 368 369 361 355 356 355 354 357 355 354 355 354 353 353 353 351 348 348 347 345 344 343 344 345 343 344 346 348 350 352 351 350 350 349 347 345 344 343 344 346 346 347 348 350 349 348 348 346 344 344 344 347 348 340 334 336
357 357 355 354 352 353 353 354 355 354 354 354 352 351 351 352 354 353 358 367 363 355 357 356 355 357 356 355 354 352 353 354 353 352 350 349 349 347 347 346 345 345 344 345 347 349 351 352 352 352 350 348 345 340 337 338 342 345 345 346 347 349 350 349 348 346 345 344 343 344 347 342 335 336
357 357 357 356 354 355 356 356 357 356 355 354 352 352 351 352 354 353 355 362 360 355 356 357 355 356 357 357 355 352 353 354 353 353 351 350 349 349 348 348 348 346 345 346 348 350 352 352 352 353 350 348 343 334 331 335 341 344 345 345 346 348 350 350 349 348 346 345 343 343 346 344 338 336
357 358 358 357 356 355 356 356 355 355 354 354 352 352 352 352 354 355 355 358 358 357 356 356 357 357 357 356 354 353 353 353 354 353 352 350 350 351 350 348 348 349 347 348 349 351 352 352 353 353 350 346 340 331 330 337 342 345 346 346 347 348 350 351 351 350 348 345 345 343 344 345 340 337
359 359 357 355 354 355 355 355 355 355 355 355 354 352 353 353 354 354 355 357 358 357 356 357 358 358 357 356 355 354 354 354 354 353 352 350 351 352 352 349 350 350 349 349 350 352 353 353 353 353 350 345 337 330 332 338 341 344 345 346 348 349 351 352 352 351 350 347 346 344 344 344 343 339
358 359 357 356 356 356 356 356 356 357 356 355 354 353 353 355 354 354 355 357 358 357 357 358 359 358 358 357 356 354 354 355 354 353 352 351 351 352 352 351 350 350 351 350 351 352 353 353 353 353 351 344 335 330 334 338 340 342 344 345 348 350 351 353 352 353 352 349 346 345 345 345 345 343
356 358 358 359 359 358 358 358 357 357 356 355 354 354 354 354 354 355 356 357 357 357 358 359 359 359 358 356 354 353 353 354 353 352 353 353 353 353 352 352 352 351 351 351 351 353 354 353 353 353 350 342 336 333 334 336 338 340 340 341 344 347 350 352 353 353 353 351 348 345 345 346 345 345
357 358 359 358 358 358 358 358 357 357 356 355 355 354 354 354 354 355 356 355 356 357 359 359 358 357 356 354 353 353 354 354 354 353 353 353 353 353 352 352 352 351 351 351 351 352 353 353 352 352 348 340 337 335 333 334 335 337 338 338 338 340 344 348 350 352 352 352 350 347 345 346 345 345
357 358 358 358 357 358 357 357 357 357 356 356 356 355 355 354 355 356 356 355 356 357 358 358 357 356 356 356 355 354 356 357 356 355 353 352 351 350 350 350 351 351 351 350 350 350 352 352 352 352 346 339 337 336 333 331 332 334 335 335 336 336 337 340 344 345 347 350 351 349 346 345 345 345
356 355 355 356 357 358 358 357 357 357 357 355 355 355 355 355 355 355 356 355 355 356 356 358 358 357 358 358 356 356 358 359 359 358 356 353 349 348 349 348 348 350 351 350 350 351 352 352 352 352 346 339 337 336 332 330 329 330 333 334 334 334 333 334 336 337 338 343 348 350 348 345 345 345
355 355 355 355 357 358 358 357 356 356 355 354 354 356 356 357 357 356 356 356 356 355 357 358 359 359 359 359 357 358 360 361 360 359 357 354 349 347 349 348 348 349 352 352 352 352 353 352 352 352 346 339 338 335 332 329 326 325 328 330 332 333 333 333 333 333 333 335 342 348 349 347 345 345
354 355 355 355 355 357 357 356 355 354 353 353 354 355 356 357 357 356 355 356 357 358 359 358 359 359 359 358 356 358 360 360 358 358 358 355 350 349 351 351 350 351 354 354 352 352 353 352 352 352 348 341 338 335 332 328 325 322 323 324 325 328 330 331 331 332 331 332 335 341 345 347 347 346
354 353 354 354 355 355 355 355 353 353 353 353 353 354 355 355 356 355 354 354 356 359 360 359 358 358 357 357 356 356 357 357 357 359 359 355 351 351 352 352 351 353 354 355 354 353 353 352 352 352 350 344 337 335 333 329 326 324 322 321 320 321 324 327 328 329 330 330 332 334 337 340 343 345
355 354 355 357 356 354 353 353 353 352 352 352 352 352 353 353 354 354 354 354 357 359 361 360 358 357 356 356 356 355 356 356 357 358 359 355 352 352 353 353 352 353 354 357 357 355 353 353 353 353 353 347 338 335 334 331 329 327 323 321 319 318 318 320 323 325 327 328 330 333 335 335 335 337
355 355 356 359 358 355 353 353 354 353 353 353 353 353 352 352 352 352 353 354 356 358 360 359 358 357 357 357 356 356 356 356 356 356 357 356 353 352 353 353 352 352 353 355 357 356 355 355 353 353 354 348 339 337 335 332 331 329 324 322 322 320 317 316 318 320 323 324 328 333 337 336 333 332
355 355 355 357 358 356 356 355 356 357 357 356 355 354 353 353 353 354 354 354 355 356 357 357 357 357 357 357 357 357 357 357 355 355 356 356 356 355 354 353 352 352 353 355 356 356 356 355 354 354 353 345 339 339 337 332 331 329 326 326 325 322 318 316 315 316 318 320 323 329 335 336 334 332
355 354 353 353 355 356 357 356 356 357 358 358 356 355 355 355 355 355 355 356 357 357 357 357 357 356 356 357 357 357 358 357 356 356 356 357 357 355 355 355 353 352 354 355 354 353 355 354 354 354 350 343 340 340 336 332 331 329 327 327 325 322 321 319 316 315 314 315 317 321 327 333 334 331
355 354 353 353 355 356 357 357 356 358 360 360 359 358 357 357 357 356 356 356 357 357 357 356 356 355 355 355 354 354 356 356 357 357 357 358 357 354 354 355 355 354 355 355 351 349 351 352 354 354 350 344 342 340 335 333 331 329 328 327 325 323 323 322 320 318 315 313 314 314 318 327 332 330
357 357 357 357 357 356 356 356 357 357 359 359 359 359 357 357 357 356 356 356 355 355 355 355 354 354 353 353 352 352 353 353 354 355 357 358 356 353 352 353 354 355 355 354 349 346 347 349 352 353 351 347 343 339 335 333 331 329 328 326 325 325 325 324 323 322 318 313 311 310 315 325 331 329
358 358 357 357 356 355 354 355 355 355 355 356 357 356 355 354 354 355 355 355 354 354 354 354 354 353 352 352 351 351 352 352 352 354 357 357 356 352 350 350 353 355 355 352 349 345 343 345 350 353 351 348 344 340 335 333 331 330 328 326 325 325 325 325 324 323 322 318 314 314 321 329 330 328
355 354 355 354 353 353 353 352 352 352 351 352 353 352 352 351 351 352 352 352 353 353 353 353 353 353 352 352 351 351 351 351 351 353 354 354 353 352 350 351 352 352 352 349 346 343 341 341 345 350 347 342 341 340 336 332 331 331 329 327 326 325 325 325 324 324 323 322 319 320 327 331 329 326
351 349 350 350 350 350 349 348 348 348 348 348 347 346 346 346 346 348 349 350 351 352 352 353 352 352 351 350 350 351 351 351 351 351 350 350 350 350 351 351 349 348 347 344 340 340 340 338 339 343 343 339 338 337 334 331 331 332 330 329 327 326 326 325 325 324 324 324 322 321 325 329 329 326
349 348 346 345 343 344 343 342 341 341 340 339 337 337 336 336 338 340 340 342 343 345 347 348 349 350 350 350 350 350 351 351 350 350 351 350 349 350 350 349 348 347 343 338 336 337 338 334 333 335 337 338 338 335 332 331 332 332 332 330 328 327 326 326 325 325 324 324 324 321 321 325 328 328
344 343 340 337 335 335 337 335 333 333 333 334 333 334 334 334 335 336 336 336 336 337 338 340 341 342 344 346 348 349 350 351 350 350 350 348 347 348 348 348 349 345 338 333 333 335 334 331 330 330 329 330 332 331 328 327 328 329 330 331 330 328 327 326 325 324 324 324 324 323 321 321 325 329
338 335 332 333 332 327 327 330 332 333 335 336 335 335 335 336 336 337 337 337 338 338 339 339 339 339 340 342 345 347 349 349 348 347 346 342 341 341 341 344 345 339 331 329 332 333 330 328 328 328 327 325 325 325 324 325 327 328 330 332 332 330 329 327 325 323 324 324 324 324 323 321 322 326
330 326 323 327 328 323 325 333 337 337 338 336 335 335 335 335 336 338 338 339 339 340 340 340 340 341 341 342 345 347 347 344 341 341 339 336 336 335 334 334 333 328 324 326 329 330 328 326 325 324 323 322 323 325 325 325 327 329 330 330 331 330 329 327 325 324 323 323 323 325 325 323 322 323
323 320 318 321 324 326 332 338 339 338 337 335 333 335 335 334 336 337 338 338 339 340 340 341 342 342 343 344 344 343 341 338 334 334 333 331 331 331 328 326 323 321 321 322 324 325 323 322 321 321 320 320 323 325 325 324 325 326 326 327 328 329 328 327 326 326 324 321 322 324 325 324 323 322
318 318 319 323 328 331 336 339 338 337 335 333 332 333 333 333 335 335 335 336 338 339 340 340 339 338 338 339 337 334 332 330 329 329 328 326 326 325 324 323 321 321 321 320 320 320 318 316 314 315 319 322 324 324 324 325 325 324 323 325 326 327 327 326 326 326 325 324 322 322 323 324 324 323
316 319 324 330 333 335 338 338 336 334 332 331 332 332 332 332 332 332 332 334 335 335 335 334 333 331 330 330 329 328 327 327 326 326 324 323 323 324 324 323 322 322 322 321 320 320 319 317 314 313 317 322 324 324 324 325 324 323 324 326 325 325 325 326 325 324 324 323 320 320 322 324 324 324
325 329 333 336 337 337 337 335 333 331 330 330 331 331 331 331 331 330 330 331 331 330 330 330 330 330 329 329 328 328 328 327 326 326 325 324 323 323 323 323 323 323 323 322 321 320 320 319 316 315 316 319 322 324 325 324 323 324 325 326 325 324 324 323 322 321 321 319 318 320 322 323 323 323
334 335 336 336 336 335 334 332 331 330 329 329 329 329 329 330 330 329 329 329 329 329 329 328 328 327 326 325 325 325 326 326 326 326 325 324 323 323 322 322 322 322 322 322 321 321 320 317 315 317 318 318 320 322 323 322 321 321 323 323 322 321 321 320 319 318 318 318 319 320 321 322 322 322
333 333 333 333 333 333 332 331 331 330 329 328 328 327 328 328 328 328 328 328 328 327 326 325 324 323 322 322 322 323 324 324 324 325 324 323 323 322 321 320 319 320 321 321 320 320 319 316 315 318 319 319 320 322 322 322 320 319 321 322 321 320 320 319 317 317 318 320 320 319 320 321 321 319
331 330 330 330 329 329 329 329 330 330 329 328 327 326 326 326 326 326 326 325 325 324 323 323 322 323 323 323 323 323 323 323 323 323 323 323 321 320 320 319 318 319 320 320 319 319 318 317 318 319 320 320 320 320 321 321 320 320 320 321 320 319 318 317 316 317 318 319 319 319 320 320 318 317
327 327 327 327 327 327 326 326 327 328 328 327 326 325 325 324 324 324 324 324 323 323 323 323 323 323 323 323 323 323 322 321 321 321 321 321 320 320 319 318 318 318 318 318 318 318 318 318 318 319 321 322 322 321 320 319 319 319 319 318 318 317 316 315 316 316 317 317 317 317 318 318 316 315
325 325 325 325 325 324 323 323 323 324 325 325 324 324 322 321 322 322 322 322 323 323 323 323 322 322 321 321 321 321 320 319 318 318 318 318 318 317 316 316 316 317 317 317 318 319 319 318 317 317 317 320 323 324 321 318 317 318 317 316 317 316 315 315 315 314 314 314 315 315 315 316 316 315
324 324 323 322 322 322 321 321 320 321 322 322 322 322 320 319 319 320 320 321 322 321 321 321 320 320 319 318 319 318 317 316 316 315 315 315 315 314 313 313 314 315 316 317 318 318 318 317 316 314 313 316 320 322 320 316 316 317 316 315 316 316 314 314 314 313 313 313 313 312 313 314 315 315
323 322 321 320 320 319 319 318 318 319 320 320 320 320 319 318 319 319 320 320 320 320 320 319 318 317 317 317 317 317 316 316 315 315 314 314 314 314 313 312 313 314 314 316 316 316 316 315 314 312 312 314 317 319 318 315 315 315 315 315 316 315 313 313 313 312 312 312 311 311 312 313 314 314
321 321 320 319 318 317 317 316 316 316 317 318 318 318 318 318 318 319 319 319 318 318 318 317 316 315 315 315 315 315 315 315 314 314 313 313 313 313 311 311 312 312 313 313 313 312 313 313 312 311 311 312 313 314 313 312 313 314 315 315 315 314 313 312 312 312 312 311 310 310 311 311 312 311
320 320 319 318 317 316 316 315 315 314 314 315 315 316 316 316 316 316 316 316 316 316 316 315 314 314 314 313 313 313 313 313 313 312 312 312 312 311 310 311 311 311 311 312 312 311 312 312 312 311 310 311 311 312 312 312 313 314 315 315 314 313 312 311 311 311 311 310 309 309 310 310 310 311
319 319 318 318 317 317 316 315 314 314 313 313 313 313 313 313 313 313 313 313 313 314 313 313 313 312 312 312 312 312 312 312 311 311 311 311 310 309 309 310 311 310 311 312 312 310 310 312 312 311 310 311 311 311 313 313 313 312 313 314 314 313 312 311 311 311 310 309 309 309 309 308 309 310
318 318 317 317 317 316 316 315 314 314 313 312 312 312 312 311 311 311 311 311 311 311 311 311 311 311 310 310 310 310 310 309 308 309 309 308 308 308 308 309 309 309 310 310 310 310 309 310 311 310 310 310 311 311 312 313 312 311 311 312 312 312 311 311 312 311 310 309 308 309 309 308 308 309
316 317 316 315 315 315 314 314 313 313 313 313 312 311 311 311 310 310 309 309 308 308 308 308 308 308 308 308 308 308 308 307 307 307 307 306 307 307 307 307 308 309 309 309 309 309 309 309 309 309 309 309 310 310 311 311 311 311 311 311 310 310 310 311 312 312 310 309 309 309 309 308 308 308
315 315 314 314 313 312 312 312 311 312 312 311 311 310 310 310 309 308 308 307 307 307 307 307 307 307 307 307 307 307 307 306 306 307 306 306 306 307 307 308 308 308 309 309 308 308 308 308 308 309 309 309 309 309 310 310 310 311 310 310 310 310 309 310 311 312 311 310 309 309 309 309 308 307
313 313 313 312 312 311 311 311 311 310 310 309 309 308 308 308 307 306 305 305 305 305 306 306 306 306 307 306 305 306 306 306 306 307 307 306 306 306 307 307 307 307 307 307 307 307 307 307 308 308 308 308 308 309 309 310 310 310 310 309 309 310 310 310 311 311 311 310 309 309 309 309 308 307
Wind_Speed
9 8 8 9 9 6 5 5 5 7 9 6 5 8 7 5 2 0 2 2 2 4 8 8 5 3 6 9 8 7 9 10 11 11 9 10 11 12 11 12 12 13 11 10 10 9 11 13 13 13 12 12 12 12 13 13 14 14 14 12 12 11 8 4 5 5 5 3 1 1 1 2 3 5
10 9 9 10 10 8 6 5 6 7 9 9 6 7 8 7 6 4 3 2 4 5 7 7 7 7 9 9 7 8 10 10 11 11 9 10 12 14 15 14 14 13 11 10 8 8 10 12 12 12 12 12 12 12 12 12 13 13 13 13 12 11 8 5 4 5 4 4 3 2 1 1 3 4
12 11 10 10 10 10 8 7 7 8 9 10 9 9 10 9 9 8 6 2 4 6 7 8 9 9 10 9 8 9 8 8 9 10 10 10 13 17 19 19 17 15 11 9 7 6 8 10 11 11 11 12 12 12 12 12 11 12 12 12 12 11 9 6 4 4 3 4 4 4 2 2 2 3
11 11 11 10 9 8 8 8 8 9 10 10 10 13 14 13 11 10 8 6 6 9 9 9 9 8 8 9 9 8 6 7 9 9 9 10 14 15 14 14 15 15 12 8 5 4 6 8 10 10 10 11 11 12 12 11 11 11 11 12 12 11 10 8 5 3 3 3 4 4 4 3 3 4
12 13 12 12 10 8 8 8 9 10 10 10 11 12 11 8 8 9 9 9 8 9 8 7 7 7 7 8 8 7 7 9 10 10 10 11 12 11 7 6 7 8 10 8 5 3 4 6 8 9 10 10 11 11 11 10 11 11 11 12 12 11 10 9 7 4 2 3 4 4 4 4 4 4
13 15 15 14 12 10 9 9 10 12 11 10 10 8 6 3 3 6 10 10 8 8 7 6 6 6 7 8 8 9 10 11 11 12 11 10 9 8 6 4 4 3 7 7 4 3 4 4 6 8 8 9 10 10 10 10 11 11 11 12 12 12 11 10 8 6 3 1 4 5 5 4 4 4
15 14 14 13 12 11 11 11 11 10 9 8 7 5 3 2 2 2 6 9 8 7 6 5 6 7 8 10 11 12 12 11 12 12 10 9 8 8 8 6 3 2 6 7 5 4 4 2 4 6 7 8 9 9 9 10 10 11 11 12 12 12 12 11 10 8 5 2 3 5 6 6 4 4
16 14 14 13 12 12 12 13 12 10 9 8 6 5 6 4 3 1 4 6 6 6 6 5 7 8 10 12 13 12 12 11 10 10 9 8 9 9 9 8 4 3 6 7 6 6 4 2 3 4 5 7 8 8 8 9 10 10 11 12 13 12 12 12 12 11 8 5 2 4 6 7 6 4
17 16 15 13 13 14 14 13 12 11 11 10 9 8 7 6 5 4 4 6 5 5 6 6 8 10 11 12 13 12 12 11 10 9 8 8 10 10 9 8 5 4 6 7 8 8 6 3 1 3 4 6 6 7 7 8 9 10 11 11 12 13 13 12 12 12 11 9 5 4 5 6 7 6
18 16 14 14 14 14 14 13 11 11 11 10 9 8 6 6 6 5 6 7 6 6 6 7 9 10 10 10 12 12 11 11 11 10 8 8 10 10 8 7 6 5 6 8 9 9 7 5 2 1 3 4 6 6 6 7 8 9 10 11 12 13 13 13 13 13 13 11 8 4 5 6 6 6
15 14 14 14 14 15 15 14 12 12 11 10 10 8 6 5 6 6 6 7 8 8 8 8 9 9 9 10 11 11 10 10 10 10 9 9 10 11 10 10 8 6 6 7 7 6 7 6 4 1 1 3 4 5 5 7 7 8 9 10 11 12 13 14 14 14 14 13 11 7 4 5 5 5
15 16 15 14 14 15 14 13 12 12 12 11 11 9 6 6 7 6 6 6 8 9 10 9 10 10 10 10 11 10 10 10 10 9 9 10 12 13 12 10 7 7 6 5 5 6 9 8 6 4 2 1 3 4 5 6 7 8 8 8 9 10 11 13 14 14 15 14 13 11 7 5 5 5
16 16 16 14 13 13 13 13 13 13 12 12 11 10 9 9 9 9 9 8 9 10 11 12 12 11 11 11 11 10 11 11 10 10 10 11 12 12 11 8 5 4 4 4 5 8 10 10 9 7 5 2 1 2 4 5 7 8 8 8 8 9 10 11 12 13 14 15 14 13 12 9 6 5
14 15 15 13 13 14 12 12 12 12 11 11 12 12 13 13 14 14 14 13 12 12 14 15 13 12 13 14 12 11 11 10 10 10 10 11 11 10 10 8 5 4 5 5 6 9 11 12 12 10 8 6 3 2 2 4 7 8 7 7 7 8 8 9 9 10 12 13 14 14 14 13 11 8
11 12 13 12 13 12 10 10 11 11 11 11 11 12 13 14 16 17 17 16 14 14 15 16 14 14 16 17 14 13 13 13 12 12 11 10 10 8 8 7 6 5 5 6 7 10 11 13 14 12 11 10 6 3 2 3 6 7 7 7 7 8 7 7 7 7 9 10 12 13 14 15 15 14
12 12 13 11 9 8 7 8 10 11 12 12 12 12 12 13 14 16 17 18 16 16 16 16 16 17 18 18 18 17 16 16 15 14 13 12 11 10 9 8 8 6 6 7 10 11 12 13 15 14 14 13 9 5 4 3 4 6 7 7 8 9 8 7 5 5 6 7 8 11 13 14 15 16
13 12 13 12 9 10 12 12 11 11 12 13 13 13 13 14 14 14 15 17 17 17 18 19 20 21 20 21 21 19 16 16 16 15 15 14 13 12 12 13 12 8 7 9 11 11 12 15 17 17 16 15 12 8 6 4 4 6 7 8 10 10 9 8 6 5 4 5 6 8 11 13 15 16
13 12 13 13 12 13 14 13 12 12 14 15 14 14 15 15 15 14 15 16 16 17 18 20 22 23 22 22 23 21 18 17 17 17 17 17 16 15 14 15 13 9 8 10 10 10 11 15 19 19 18 17 14 10 8 5 5 6 6 8 10 10 10 10 10 8 6 5 4 6 8 11 13 15
10 9 11 12 13 13 12 12 12 12 13 14 14 13 14 15 15 15 16 16 17 18 19 21 22 22 21 21 22 21 20 19 18 18 19 19 18 16 14 14 14 11 11 12 11 10 11 15 19 21 20 18 15 13 10 7 6 6 6 7 9 10 11 13 13 13 11 8 6 5 7 9 12 15
8 9 10 12 12 12 12 12 13 13 12 13 13 13 14 15 16 17 18 17 17 18 19 20 21 21 21 20 21 21 21 21 20 19 20 21 19 16 14 15 16 14 13 15 15 12 11 13 19 21 21 19 17 15 13 10 7 7 6 6 8 9 11 12 14 16 16 13 8 6 7 10 12 15
9 10 10 11 12 12 12 13 13 13 11 11 12 13 14 14 16 18 18 17 17 17 17 18 18 19 19 20 20 21 21 21 19 17 19 21 19 15 13 13 15 15 15 17 17 14 11 11 15 20 20 19 18 16 14 12 9 8 7 6 7 7 9 11 13 15 17 16 13 8 9 12 13 14
7 6 5 7 8 9 11 12 11 10 9 10 10 11 12 13 14 16 16 16 16 15 16 16 17 18 19 19 20 20 20 20 19 18 21 21 18 16 15 14 14 14 16 19 17 15 12 8 11 17 18 16 16 15 14 14 11 8 7 6 6 6 7 8 11 13 16 17 16 11 10 12 13 14
2 2 2 2 3 4 5 6 7 7 8 9 10 11 11 12 13 15 16 17 17 17 18 18 19 20 22 22 22 21 19 18 18 18 21 22 20 18 19 18 14 9 12 19 20 17 14 9 9 15 14 8 8 12 14 15 12 9 8 8 7 6 7 8 9 12 14 15 16 14 10 10 12 14
5 3 2 1 1 1 3 5 7 8 10 11 11 11 11 12 13 16 18 20 20 22 23 23 24 25 25 25 25 24 21 20 18 17 18 19 20 22 23 22 18 11 10 16 19 15 12 12 12 13 11 7 5 7 10 12 11 10 10 9 8 7 7 8 9 11 12 12 13 13 11 9 9 12
9 7 5 4 4 4 5 7 9 10 11 11 11 10 10 11 13 16 19 20 21 23 24 25 26 27 27 26 26 26 24 21 18 17 17 17 18 20 22 23 21 15 10 13 17 13 10 12 13 12 10 9 8 7 7 6 6 9 11 11 10 9 8 10 10 10 10 10 10 9 10 10 7 10
9 7 5 5 6 8 8 8 9 9 9 10 11 11 11 12 13 15 17 17 18 19 19 20 21 22 22 22 23 23 20 15 13 14 14 12 11 12 16 19 17 11 9 9 13 12 9 10 11 11 10 9 8 7 7 4 0 5 10 12 12 10 9 10 12 10 8 8 8 7 6 7 8 9
7 6 8 7 6 6 6 6 6 8 9 11 12 12 13 13 12 12 14 15 15 16 16 16 18 19 19 19 18 16 12 9 8 7 6 5 4 3 3 3 5 9 11 10 11 11 9 9 9 8 8 9 8 7 6 6 6 4 6 6 8 10 11 12 13 10 7 7 8 6 3 3 6 9
8 7 8 8 6 4 4 5 7 8 10 12 13 12 13 13 12 12 13 14 14 15 15 16 16 16 14 12 9 8 9 8 8 9 9 9 9 10 12 14 14 14 12 11 12 12 10 10 8 6 7 9 9 8 5 5 7 8 9 9 10 12 14 15 14 10 8 7 7 5 3 2 4 7
8 6 6 7 6 3 4 6 8 9 11 12 12 12 13 13 13 14 15 14 12 12 11 10 8 5 3 4 9 12 12 12 13 14 14 14 13 13 14 15 15 14 14 14 13 11 11 10 6 5 8 9 10 9 6 5 6 6 5 9 13 13 13 14 12 10 8 6 5 4 3 2 5 6
5 5 6 8 7 6 6 9 10 11 12 13 13 13 14 15 15 16 15 12 9 8 8 9 10 13 14 15 16 16 16 15 14 15 15 15 15 13 14 17 17 16 16 15 14 13 13 12 10 6 7 9 9 9 8 6 5 4 4 6 12 12 11 11 10 9 7 5 4 3 2 2 4 9
9 9 9 10 11 12 12 13 13 13 14 15 15 16 15 15 15 16 15 13 14 14 15 16 17 17 17 18 18 17 18 17 16 16 16 17 16 15 16 16 15 14 15 15 13 12 11 11 11 9 8 8 7 7 6 5 5 6 7 7 11 12 11 10 9 9 7 6 4 3 4 5 5 12
17 18 17 17 16 16 16 15 15 16 18 18 18 18 17 17 17 17 17 18 18 18 18 19 19 19 20 20 20 20 20 19 17 16 16 16 16 15 15 15 14 13 13 11 10 11 12 11 9 9 9 9 6 5 7 8 8 9 11 13 15 14 12 10 10 9 6 5 5 5 7 5 7 13
21 22 21 20 19 17 16 15 15 16 18 19 20 20 19 19 19 19 20 20 19 19 20 20 21 21 22 21 20 19 19 19 18 16 15 14 13 13 15 16 14 12 11 10 11 13 14 13 9 7 8 8 7 6 8 10 11 10 11 12 14 13 11 9 9 8 7 5 5 7 7 7 11 12
21 21 20 20 19 17 16 15 14 14 15 17 18 19 20 20 21 21 21 21 20 20 21 21 21 21 20 20 18 18 18 17 17 16 14 13 13 14 15 15 14 12 11 11 12 12 12 12 10 7 6 6 6 6 7 8 10 10 10 10 10 10 10 9 8 8 8 6 6 8 10 11 11 10
21 20 19 18 17 17 16 15 15 15 15 15 16 17 19 20 20 20 20 20 20 20 21 20 20 19 19 18 17 17 17 17 17 17 16 15 15 15 15 15 14 13 12 12 12 9 8 9 9 9 8 6 4 5 6 7 8 9 9 9 9 9 9 8 7 8 8 6 7 10 11 10 8 8
21 20 19 17 16 15 15 16 16 17 16 15 15 16 18 19 19 19 19 18 18 19 19 19 19 19 19 19 18 17 18 18 18 18 17 16 15 15 14 13 12 11 12 14 13 8 6 7 9 10 10 6 2 3 4 5 7 8 9 8 8 7 8 7 6 7 7 6 7 8 8 5 6 7
21 19 18 18 16 15 15 16 17 17 17 16 16 16 17 17 17 17 16 16 17 18 17 17 18 18 18 18 18 18 18 18 18 18 16 15 15 15 15 13 10 11 13 14 12 9 8 8 9 11 11 7 2 2 3 5 6 7 7 7 6 6 6 6 5 6 7 6 6 7 6 4 5 7
21 19 19 19 17 16 16 16 17 18 17 16 16 15 15 15 15 15 14 15 16 16 15 16 17 16 16 16 16 15 15 15 15 15 15 14 14 16 15 11 10 12 13 13 12 11 10 10 11 12 11 7 2 1 2 2 2 3 4 4 4 5 4 4 4 5 4 5 6 7 7 7 7 6
21 20 19 19 19 18 17 17 17 17 16 16 15 15 14 14 13 13 13 13 13 13 13 14 14 14 15 14 13 13 13 13 13 13 12 12 13 14 13 10 10 10 10 10 11 11 11 11 11 11 10 8 4 2 3 4 5 5 1 2 4 4 4 4 5 6 5 4 5 6 7 9 9 8
20 20 19 19 20 19 18 18 17 16 15 15 15 14 14 14 13 13 13 13 12 11 11 11 11 11 11 11 11 11 11 11 11 10 9 10 11 12 11 9 8 8 8 8 8 9 9 9 8 7 7 6 5 4 3 3 5 7 3 4 3 2 4 4 4 5 5 3 2 2 5 6 7 7
18 18 18 18 19 19 18 17 17 16 16 15 14 14 14 13 13 13 12 12 11 11 10 10 10 10 10 10 9 9 9 10 10 9 9 9 10 9 9 7 6 6 7 7 8 8 8 6 4 3 3 3 3 5 5 4 5 8 7 3 2 2 2 2 2 3 2 2 0 1 2 4 4 5
16 16 16 15 15 14 14 14 14 14 14 14 14 14 14 13 14 13 13 13 13 12 11 11 11 10 10 11 10 9 10 11 11 9 9 9 9 8 7 7 6 5 6 6 6 6 6 4 3 2 2 3 4 5 5 4 3 4 6 5 2 1 1 1 1 2 1 3 3 3 2 3 2 1
14 14 13 13 12 12 12 12 12 12 12 13 13 13 13 13 14 14 14 14 14 14 13 12 12 11 12 12 10 8 9 10 9 8 8 9 8 8 8 7 5 5 5 5 5 5 6 7 5 3 3 3 4 4 4 4 3 2 3 4 3 2 3 3 3 5 3 1 3 2 1 2 2 1
12 12 11 11 10 10 9 10 10 10 10 11 12 12 12 12 13 14 15 14 14 14 12 10 10 11 11 11 10 8 8 8 8 7 8 9 8 7 6 6 5 5 5 5 5 6 8 8 5 4 4 3 2 3 3 3 3 2 2 5 6 5 5 5 6 7 5 1 2 1 1 2 1 0
11 11 10 10 10 8 7 6 7 8 8 9 10 11 12 12 12 13 14 13 14 14 12 10 10 11 10 11 12 10 9 9 9 8 8 8 9 7 6 5 6 6 5 5 5 7 9 9 6 5 5 5 4 5 5 6 5 3 3 5 7 6 5 3 5 7 4 1 1 2 1 1 1 1
Wind_Direction
258 262 267 280 287 286 282 276 283 297 303 295 239 233 240 224 202 230 298 289 264 298 324 332 329 327 325 323 316 304 308 311 314 315 298 287 298 302 299 294 289 289 293 301 314 336 353 1 7 11 15 16 16 15 13 9 6 6 10 12 12 15 29 71 89 91 108 115 110 111 85 96 113 122
251 255 262 275 284 287 289 290 286 289 303 311 294 274 272 251 225 204 201 254 275 283 309 327 332 330 327 321 307 300 306 311 319 324 310 292 292 295 301 303 291 280 282 292 309 336 352 0 8 13 15 18 19 19 17 13 10 8 9 14 17 20 32 61 82 90 113 122 117 128 144 127 126 126
251 258 263 263 271 280 283 286 286 282 294 307 306 298 282 256 245 231 198 200 273 264 284 308 313 314 316 315 309 306 309 309 312 317 318 315 306 300 301 301 289 272 271 284 299 331 351 357 6 14 16 17 19 19 17 15 15 13 9 13 18 24 33 45 63 81 113 140 136 132 136 152 150 137
254 262 269 266 269 277 278 280 282 280 289 295 293 295 283 256 242 236 211 204 249 262 279 299 310 319 313 307 303 302 309 309 300 302 310 315 320 320 316 310 296 275 265 271 280 315 348 354 5 16 17 17 18 15 16 20 22 21 16 15 17 23 30 33 36 60 103 149 164 149 134 148 171 157
252 257 267 271 271 275 280 284 283 281 283 283 288 304 301 264 242 245 233 224 246 268 279 291 312 323 310 306 309 304 304 305 300 304 306 308 326 349 2 352 329 287 263 257 256 290 338 349 7 19 19 19 17 14 18 26 31 30 26 23 23 23 28 31 31 36 72 148 175 175 155 149 168 168
253 258 267 271 269 271 275 276 277 279 276 275 289 314 332 314 271 257 248 238 241 257 269 285 302 300 288 302 318 314 308 308 309 311 309 310 330 0 10 1 1 292 248 242 245 279 314 346 16 22 22 23 18 17 25 33 38 38 34 32 33 31 31 32 31 33 40 123 172 181 178 164 162 173
255 260 266 267 266 269 271 270 274 282 278 276 293 305 301 313 344 270 250 244 241 244 256 278 284 278 284 300 311 312 311 312 314 315 314 313 317 334 344 345 346 266 239 232 240 268 286 338 28 25 22 26 22 22 34 41 44 44 41 41 41 41 40 37 34 35 38 62 164 182 188 182 173 173
251 256 259 258 261 265 266 268 272 280 281 278 285 282 269 268 289 275 224 228 240 247 250 261 274 285 297 304 311 316 317 316 315 316 320 320 315 322 333 335 324 262 237 234 248 265 272 302 33 34 30 34 29 26 36 45 48 48 47 46 47 48 48 45 40 38 41 52 115 176 190 193 189 182
247 246 248 251 261 265 262 265 269 273 275 274 275 275 271 266 266 257 234 235 244 251 257 268 282 295 304 308 315 321 321 321 319 317 319 319 317 322 329 330 318 263 238 247 262 268 263 256 40 42 40 46 41 32 35 41 46 49 50 51 51 52 54 54 51 45 44 50 71 145 182 196 198 195
250 247 248 253 258 258 259 262 265 267 269 269 270 271 272 264 254 253 258 257 254 257 272 285 293 301 305 306 314 320 319 319 319 318 318 315 313 315 318 321 314 279 260 267 273 267 251 235 222 36 48 60 53 42 40 41 43 45 47 50 53 54 56 58 58 55 51 49 56 93 160 187 199 202
262 266 266 263 258 259 264 263 260 262 266 269 269 267 264 255 250 258 263 258 255 259 271 280 283 289 290 293 306 313 308 305 308 311 311 311 315 316 312 308 302 289 278 279 277 251 225 221 230 258 45 73 59 50 49 46 45 45 44 47 51 53 55 57 60 61 59 56 56 68 115 166 190 200
262 265 263 260 260 260 258 254 254 260 267 271 267 258 246 236 239 252 259 259 263 264 264 265 265 271 275 281 294 297 283 277 286 295 295 301 312 316 314 310 297 288 287 284 271 231 212 215 225 233 225 109 70 60 58 50 48 49 44 44 47 49 52 55 58 61 63 63 63 66 83 124 170 190
263 260 256 258 261 254 249 254 259 264 269 270 264 255 249 244 244 252 259 265 269 263 256 256 260 265 268 274 284 283 270 266 278 286 286 293 306 312 314 317 304 273 266 267 262 240 225 223 223 225 226 209 127 74 67 61 58 55 49 45 47 47 47 51 56 60 64 67 69 71 77 90 119 164
263 259 256 260 256 246 249 261 264 267 272 269 265 264 265 262 260 262 265 265 263 255 251 255 259 259 262 270 279 280 278 278 280 279 279 288 300 305 306 312 308 263 239 240 252 246 232 227 226 225 228 225 199 138 94 80 70 62 54 47 46 47 45 46 50 55 61 66 71 75 78 82 89 103
254 252 252 257 259 259 270 276 269 270 274 272 271 273 272 270 268 268 267 265 260 253 251 257 259 258 263 271 276 276 277 279 278 275 273 279 288 292 292 298 295 265 232 227 243 245 235 231 231 229 231 230 213 189 164 109 78 64 59 55 51 49 44 43 44 48 55 62 68 75 79 82 83 85
247 244 241 248 266 280 281 268 259 266 274 278 279 279 274 270 270 271 268 264 260 253 252 257 262 264 267 274 277 276 273 273 277 275 269 269 274 272 264 265 273 273 251 236 241 245 237 232 232 231 231 228 217 210 207 153 90 70 67 63 55 49 43 41 42 43 51 59 65 74 79 81 83 83
246 245 244 247 256 258 251 246 248 261 274 280 280 277 272 268 270 273 272 268 264 259 257 258 262 267 269 272 277 279 274 271 272 268 264 266 266 260 257 261 267 272 255 238 239 246 240 228 225 227 226 223 219 220 215 177 107 84 79 66 56 52 47 46 47 46 50 60 66 73 78 81 83 83
249 254 253 250 250 251 251 254 257 263 272 277 275 271 266 265 268 273 275 275 271 267 262 260 264 270 272 273 276 278 273 270 270 267 262 259 255 255 263 268 268 262 243 234 240 251 242 221 216 220 220 218 220 223 214 183 130 100 87 72 62 60 59 57 58 57 53 57 69 76 77 82 86 86
255 256 251 247 248 248 248 252 256 258 264 268 269 269 270 273 277 278 278 278 274 270 268 267 269 273 274 275 277 276 273 271 272 270 263 258 258 263 265 264 261 252 232 223 227 242 238 218 213 218 220 219 220 218 210 190 149 122 100 83 76 71 67 64 62 58 53 50 60 77 86 92 93 92
235 232 234 240 247 252 252 251 252 255 259 263 266 273 280 284 286 285 284 283 281 279 276 274 273 274 275 277 279 281 279 274 271 269 263 261 262 262 260 259 256 246 228 219 221 234 240 224 215 217 219 220 220 215 208 195 160 135 118 97 91 83 71 65 61 56 51 48 51 75 99 105 104 99
218 221 230 241 248 253 256 255 256 258 263 268 272 278 285 289 290 290 291 291 288 287 286 281 277 276 279 282 283 283 283 278 272 264 258 259 258 251 249 254 253 243 230 220 218 226 236 230 218 216 216 218 221 218 207 194 169 146 138 120 106 98 83 73 66 57 51 49 53 77 108 112 110 106
225 219 228 249 256 257 259 264 269 272 276 282 286 291 293 294 295 296 297 296 292 289 287 282 278 279 283 288 288 285 283 283 277 262 254 258 256 241 234 241 248 246 233 222 216 218 227 232 211 202 201 209 220 222 211 195 176 158 157 147 129 124 110 90 76 63 54 50 52 68 102 116 116 113
197 174 173 228 257 268 275 284 290 295 302 306 308 309 305 300 299 296 293 291 289 287 285 281 282 283 286 290 291 288 284 284 281 272 267 266 258 243 239 239 239 239 227 216 210 209 210 201 182 179 177 187 218 223 214 200 187 178 177 170 158 150 137 118 94 76 64 55 54 61 79 110 125 122
116 109 105 104 76 342 327 333 329 324 324 323 321 319 312 303 298 293 290 289 286 284 282 280 280 280 282 285 286 285 285 285 283 278 274 269 260 252 250 243 232 228 224 212 208 208 197 175 164 166 163 152 156 186 199 201 202 205 199 188 182 175 160 142 115 90 75 66 63 65 71 90 127 136
105 109 110 88 46 15 351 343 339 336 335 334 334 333 326 316 308 302 298 296 292 290 287 284 282 281 280 280 278 280 283 281 272 264 260 260 257 252 252 249 237 225 219 211 209 209 184 158 154 152 143 127 119 139 167 190 219 223 215 207 200 187 172 155 128 100 87 80 74 74 75 76 101 137
92 91 82 58 24 8 360 352 350 352 355 356 355 351 342 331 322 315 312 311 309 306 303 298 295 292 287 282 278 278 275 261 248 251 253 253 253 249 256 261 248 213 184 185 192 189 159 134 139 141 133 121 114 126 141 127 63 228 220 223 221 205 182 161 136 111 99 96 88 83 83 73 80 121
69 50 43 38 21 5 5 15 22 18 12 9 5 356 344 336 331 329 329 327 324 320 314 306 303 301 296 288 279 267 251 224 213 222 217 199 189 163 169 198 153 121 114 122 139 145 129 109 113 122 127 131 123 113 112 87 70 111 156 189 206 196 178 160 142 124 109 106 101 94 95 87 89 117
56 47 41 33 27 38 58 56 45 32 18 9 1 351 343 343 344 343 339 333 325 318 311 305 304 305 300 285 254 214 191 170 152 146 136 127 122 112 106 108 105 92 83 89 103 110 100 88 92 105 118 124 114 96 82 73 83 104 112 114 137 156 157 153 147 135 122 115 106 93 88 144 149 137
51 41 28 17 18 54 73 58 50 39 22 9 3 0 0 1 358 350 344 339 333 327 323 321 329 356 32 116 135 134 133 129 124 123 118 109 107 107 100 95 90 78 65 61 65 70 68 62 66 105 121 116 100 85 69 67 87 99 95 104 118 129 142 148 144 135 130 116 94 85 75 151 185 185
48 31 17 20 35 58 67 64 59 44 27 20 22 22 19 18 15 5 358 359 8 22 37 51 66 79 90 101 109 110 109 109 106 107 108 102 98 98 95 91 86 78 73 73 72 68 59 45 39 63 112 122 105 86 74 68 76 59 46 106 123 120 126 135 124 111 106 75 57 83 59 39 190 192
46 48 45 50 64 74 76 72 61 48 41 39 39 36 33 35 36 32 32 44 57 66 73 76 80 87 93 96 98 98 97 95 92 96 100 97 92 90 90 91 87 80 82 86 81 65 43 26 28 45 77 105 108 97 88 78 65 51 55 102 125 119 113 111 95 81 72 55 66 91 48 38 164 177
60 65 70 73 76 75 73 69 62 57 56 53 48 46 47 50 52 55 60 65 68 73 79 81 82 86 88 89 89 90 87 82 80 86 93 92 92 90 84 76 69 70 76 75 60 40 24 18 31 47 56 68 83 99 97 85 72 72 84 100 110 108 100 89 76 69 68 77 87 69 46 64 156 166
66 66 68 68 68 65 63 62 60 59 59 58 55 53 53 55 57 60 63 65 67 72 77 78 79 81 81 79 80 81 78 72 70 75 83 86 86 80 72 63 53 50 52 46 35 27 20 22 36 45 46 58 72 85 90 79 66 73 93 103 103 97 84 69 60 57 66 79 68 58 73 124 154 154
64 63 62 60 57 55 54 53 55 58 60 61 58 56 56 59 60 60 61 63 67 71 73 73 74 74 71 68 68 69 68 65 64 69 77 83 78 68 63 60 49 39 37 37 34 25 17 22 40 57 65 75 85 89 88 77 68 76 90 92 88 78 64 53 45 50 65 71 57 70 104 132 142 138
61 59 58 55 52 52 51 50 55 62 65 64 61 58 57 59 61 62 62 64 68 71 71 70 67 63 60 59 62 66 66 63 63 68 76 81 78 68 61 52 40 33 32 26 18 14 14 19 33 54 66 81 105 103 92 77 72 80 84 74 63 57 55 57 54 52 60 58 56 79 107 130 141 141
61 59 57 52 48 49 48 49 57 67 71 70 69 68 63 59 61 66 67 69 73 73 70 67 62 59 58 60 64 67 67 64 63 65 68 70 67 62 56 46 34 29 25 15 8 15 41 40 41 53 58 59 78 102 97 83 71 71 72 65 57 53 61 70 62 45 42 39 46 65 82 110 151 162
65 61 57 53 50 49 48 50 58 68 75 76 77 78 74 69 69 71 73 75 75 71 68 66 63 61 64 68 70 70 68 65 63 60 57 56 53 46 43 41 34 30 31 29 33 53 67 57 51 55 56 51 46 63 79 91 90 75 56 52 70 91 92 87 70 52 48 45 40 37 37 66 141 170
69 64 60 56 54 53 53 54 59 65 71 76 77 78 78 77 77 79 80 78 75 72 69 66 63 60 62 65 67 68 65 60 56 52 47 44 38 31 28 26 25 33 44 52 53 56 59 53 47 49 54 60 74 45 23 40 70 52 30 43 96 122 113 81 74 78 70 47 35 34 41 58 84 122
69 67 64 60 56 56 58 59 61 62 65 68 72 74 73 73 72 73 73 71 71 71 70 66 62 60 59 58 57 59 61 58 54 48 40 33 26 21 19 13 9 21 43 54 46 43 49 50 43 44 55 64 63 33 341 318 331 348 3 151 135 122 111 93 90 97 93 57 34 46 62 67 73 88
69 69 67 62 57 56 56 57 57 58 60 62 66 69 69 68 67 66 64 63 62 63 64 64 63 59 58 57 53 51 54 53 47 40 33 23 13 10 13 12 2 5 25 43 45 46 52 51 41 40 56 63 46 22 10 347 5 27 78 171 183 137 112 106 104 112 109 83 34 55 66 69 90 110
73 73 73 69 63 57 53 50 49 50 53 55 56 57 58 59 58 58 57 54 51 49 49 49 47 45 43 41 36 32 29 23 20 19 15 8 1 358 3 6 1 5 23 41 51 52 51 50 47 40 49 58 39 32 48 61 47 48 65 103 181 180 131 87 100 138 115 50 77 144 63 42 79 123
76 81 80 76 72 67 61 54 46 41 42 45 46 46 47 47 46 45 43 39 36 34 31 28 26 22 20 17 15 15 8 1 2 4 358 352 352 354 356 358 1 8 18 29 40 39 25 16 22 15 8 28 36 41 51 55 38 45 58 55 52 194 225 324 246 200 152 59 90 121 93 50 45 61
83 87 84 77 73 72 70 64 54 47 44 42 38 36 36 36 35 33 30 29 28 26 22 20 17 14 12 10 10 7 356 351 355 1 358 354 352 346 342 343 346 352 354 356 7 9 355 349 350 339 338 11 23 10 2 4 8 42 51 14 335 264 260 276 240 219 216 114 102 119 134 112 85 346
84 89 91 81 70 70 77 78 73 69 64 56 49 44 40 38 35 31 28 27 25 22 17 12 9 10 10 9 8 3 355 355 357 355 353 353 350 342 339 340 336 332 331 333 347 360 355 350 353 359 358 359 344 322 323 324 322 320 316 312 301 286 285 275 234 218 223 193 105 84 211 171 144 45
86 90 87 69 57 66 85 87 76 74 74 69 63 59 55 52 49 45 41 36 30 26 25 20 12 7 2 358 357 356 357 358 353 343 342 348 350 349 344 328 320 327 343 359 13 10 358 353 353 355 348 334 311 296 286 286 304 332 345 335 332 329 319 284 224 213 215 172 47 4 331 192 222 323